Year,Month,Day,Hour,Minute,Value (Times are PST for temperature in C)
2016,07,24,00,00,15.80
2016,07,24,00,01,15.80
2016,07,24,00,02,15.80
2016,07,24,00,03,15.70
2016,07,24,00,04,15.70
2016,07,24,00,05,15.70
2016,07,24,00,06,15.70
2016,07,24,00,07,15.70
2016,07,24,00,08,15.70
2016,07,24,00,09,15.70
2016,07,24,00,10,15.60
2016,07,24,00,11,15.60
2016,07,24,00,12,15.60
2016,07,24,00,13,15.60
2016,07,24,00,14,15.60
2016,07,24,00,15,15.60
2016,07,24,00,16,15.60
2016,07,24,00,17,15.60
2016,07,24,00,18,15.60
2016,07,24,00,19,15.60
2016,07,24,00,20,15.60
2016,07,24,00,21,15.60
2016,07,24,00,22,15.60
2016,07,24,00,23,15.60
2016,07,24,00,24,15.60
2016,07,24,00,25,15.60
2016,07,24,00,26,15.60
2016,07,24,00,27,15.60
2016,07,24,00,28,15.60
2016,07,24,00,29,15.60
2016,07,24,00,30,15.60
2016,07,24,00,31,15.60
2016,07,24,00,32,15.60
2016,07,24,00,33,15.60
2016,07,24,00,34,15.60
2016,07,24,00,35,15.60
2016,07,24,00,36,15.50
2016,07,24,00,37,15.50
2016,07,24,00,38,15.50
2016,07,24,00,39,15.50
2016,07,24,00,40,15.50
2016,07,24,00,41,15.50
2016,07,24,00,42,15.40
2016,07,24,00,43,15.40
2016,07,24,00,44,15.40
2016,07,24,00,45,15.40
2016,07,24,00,46,15.40
2016,07,24,00,47,15.40
2016,07,24,00,48,15.30
2016,07,24,00,49,15.30
2016,07,24,00,50,15.30
2016,07,24,00,51,15.30
2016,07,24,00,52,15.30
2016,07,24,00,53,15.30
2016,07,24,00,54,15.30
2016,07,24,00,55,15.30
2016,07,24,00,56,15.30
2016,07,24,00,57,15.30
2016,07,24,00,58,15.30
2016,07,24,00,59,15.30
2016,07,24,01,00,15.30
2016,07,24,01,01,15.40
2016,07,24,01,02,15.40
2016,07,24,01,03,15.40
2016,07,24,01,04,15.50
2016,07,24,01,05,15.50
2016,07,24,01,06,15.60
2016,07,24,01,07,15.60
2016,07,24,01,08,15.60
2016,07,24,01,09,15.60
2016,07,24,01,10,15.60
2016,07,24,01,11,15.60
2016,07,24,01,12,15.60
2016,07,24,01,13,15.60
2016,07,24,01,14,15.60
2016,07,24,01,15,15.60
2016,07,24,01,16,15.60
2016,07,24,01,17,15.60
2016,07,24,01,18,15.60
2016,07,24,01,19,15.60
2016,07,24,01,20,15.60
2016,07,24,01,21,15.60
2016,07,24,01,22,15.60
2016,07,24,01,23,15.60
2016,07,24,01,24,15.60
2016,07,24,01,25,15.60
2016,07,24,01,26,15.60
2016,07,24,01,27,15.60
2016,07,24,01,28,15.60
2016,07,24,01,29,15.60
2016,07,24,01,30,15.60
2016,07,24,01,31,15.60
2016,07,24,01,32,15.60
2016,07,24,01,33,15.60
2016,07,24,01,34,15.60
2016,07,24,01,35,15.60
2016,07,24,01,36,15.60
2016,07,24,01,37,15.60
2016,07,24,01,38,15.60
2016,07,24,01,39,15.60
2016,07,24,01,40,15.60
2016,07,24,01,41,15.60
2016,07,24,01,42,15.60
2016,07,24,01,43,15.60
2016,07,24,01,44,15.60
2016,07,24,01,45,15.60
2016,07,24,01,46,15.60
2016,07,24,01,47,15.50
2016,07,24,01,48,15.50
2016,07,24,01,49,15.50
2016,07,24,01,50,15.50
2016,07,24,01,51,15.50
2016,07,24,01,52,15.50
2016,07,24,01,53,15.40
2016,07,24,01,54,15.40
2016,07,24,01,55,15.40
2016,07,24,01,56,15.40
2016,07,24,01,57,15.40
2016,07,24,01,58,15.40
2016,07,24,01,59,15.40
2016,07,24,02,00,15.30
2016,07,24,02,01,15.30
2016,07,24,02,02,15.30
2016,07,24,02,03,15.30
2016,07,24,02,04,15.30
2016,07,24,02,05,15.30
2016,07,24,02,06,15.30
2016,07,24,02,07,15.20
2016,07,24,02,08,15.20
2016,07,24,02,09,15.20
2016,07,24,02,10,15.20
2016,07,24,02,11,15.20
2016,07,24,02,12,15.20
2016,07,24,02,13,15.10
2016,07,24,02,14,15.10
2016,07,24,02,15,15.10
2016,07,24,02,16,15.00
2016,07,24,02,17,15.00
2016,07,24,02,18,15.00
2016,07,24,02,19,15.00
2016,07,24,02,20,15.00
2016,07,24,02,21,15.00
2016,07,24,02,22,15.00
2016,07,24,02,23,15.00
2016,07,24,02,24,15.00
2016,07,24,02,25,15.00
2016,07,24,02,26,15.00
2016,07,24,02,27,15.00
2016,07,24,02,28,15.00
2016,07,24,02,29,15.00
2016,07,24,02,30,15.00
2016,07,24,02,31,15.00
2016,07,24,02,32,15.00
2016,07,24,02,33,15.00
2016,07,24,02,34,15.00
2016,07,24,02,35,15.00
2016,07,24,02,36,15.00
2016,07,24,02,37,15.10
2016,07,24,02,38,15.10
2016,07,24,02,39,15.10
2016,07,24,02,40,15.10
2016,07,24,02,41,15.20
2016,07,24,02,42,15.20
2016,07,24,02,43,15.20
2016,07,24,02,44,15.20
2016,07,24,02,45,15.20
2016,07,24,02,46,15.20
2016,07,24,02,47,15.20
2016,07,24,02,48,15.20
2016,07,24,02,49,15.20
2016,07,24,02,50,15.20
2016,07,24,02,51,15.20
2016,07,24,02,52,15.20
2016,07,24,02,53,15.10
2016,07,24,02,54,15.10
2016,07,24,02,55,15.10
2016,07,24,02,56,15.10
2016,07,24,02,57,15.10
2016,07,24,02,58,15.10
2016,07,24,02,59,15.10
2016,07,24,03,00,15.10
2016,07,24,03,01,15.00
2016,07,24,03,02,15.00
2016,07,24,03,03,15.00
2016,07,24,03,04,15.00
2016,07,24,03,05,15.00
2016,07,24,03,06,15.00
2016,07,24,03,07,15.00
2016,07,24,03,08,15.00
2016,07,24,03,09,15.00
2016,07,24,03,10,15.00
2016,07,24,03,11,15.00
2016,07,24,03,12,15.00
2016,07,24,03,13,15.00
2016,07,24,03,14,15.00
2016,07,24,03,15,15.00
2016,07,24,03,16,15.00
2016,07,24,03,17,14.90
2016,07,24,03,18,14.90
2016,07,24,03,19,14.90
2016,07,24,03,20,14.90
2016,07,24,03,21,14.80
2016,07,24,03,22,14.80
2016,07,24,03,23,14.80
2016,07,24,03,24,14.80
2016,07,24,03,25,14.80
2016,07,24,03,26,14.80
2016,07,24,03,27,14.80
2016,07,24,03,28,14.70
2016,07,24,03,29,14.70
2016,07,24,03,30,14.70
2016,07,24,03,31,14.60
2016,07,24,03,32,14.60
2016,07,24,03,33,14.60
2016,07,24,03,34,14.50
2016,07,24,03,35,14.50
2016,07,24,03,36,14.50
2016,07,24,03,37,14.40
2016,07,24,03,38,14.40
2016,07,24,03,39,14.40
2016,07,24,03,40,14.40
2016,07,24,03,41,14.40
2016,07,24,03,42,14.40
2016,07,24,03,43,14.40
2016,07,24,03,44,14.30
2016,07,24,03,45,14.30
2016,07,24,03,46,14.30
2016,07,24,03,47,14.30
2016,07,24,03,48,14.30
2016,07,24,03,49,14.30
2016,07,24,03,50,14.20
2016,07,24,03,51,14.20
2016,07,24,03,52,14.20
2016,07,24,03,53,14.20
2016,07,24,03,54,14.20
2016,07,24,03,55,14.10
2016,07,24,03,56,14.10
2016,07,24,03,57,14.10
2016,07,24,03,58,14.10
2016,07,24,03,59,14.10
2016,07,24,04,00,14.10
2016,07,24,04,01,14.00
2016,07,24,04,02,14.00
2016,07,24,04,03,14.00
2016,07,24,04,04,14.00
2016,07,24,04,05,14.00
2016,07,24,04,06,13.90
2016,07,24,04,07,13.90
2016,07,24,04,08,13.90
2016,07,24,04,09,13.90
2016,07,24,04,10,13.90
2016,07,24,04,11,13.90
2016,07,24,04,12,14.00
2016,07,24,04,13,14.00
2016,07,24,04,14,14.00
2016,07,24,04,15,14.00
2016,07,24,04,16,14.10
2016,07,24,04,17,14.10
2016,07,24,04,18,14.10
2016,07,24,04,19,14.10
2016,07,24,04,20,14.20
2016,07,24,04,21,14.20
2016,07,24,04,22,14.20
2016,07,24,04,23,14.20
2016,07,24,04,24,14.20
2016,07,24,04,25,14.20
2016,07,24,04,26,14.20
2016,07,24,04,27,14.20
2016,07,24,04,28,14.20
2016,07,24,04,29,14.20
2016,07,24,04,30,14.20
2016,07,24,04,31,14.20
2016,07,24,04,32,14.20
2016,07,24,04,33,14.30
2016,07,24,04,34,14.30
2016,07,24,04,35,14.30
2016,07,24,04,36,14.30
2016,07,24,04,37,14.30
2016,07,24,04,38,14.30
2016,07,24,04,39,14.30
2016,07,24,04,40,14.30
2016,07,24,04,41,14.30
2016,07,24,04,42,14.30
2016,07,24,04,43,14.30
2016,07,24,04,44,14.30
2016,07,24,04,45,14.30
2016,07,24,04,46,14.30
2016,07,24,04,47,14.30
2016,07,24,04,48,14.30
2016,07,24,04,49,14.30
2016,07,24,04,50,14.30
2016,07,24,04,51,14.30
2016,07,24,04,52,14.30
2016,07,24,04,53,14.40
2016,07,24,04,54,14.40
2016,07,24,04,55,14.40
2016,07,24,04,56,14.40
2016,07,24,04,57,14.40
2016,07,24,04,58,14.40
2016,07,24,04,59,14.40
2016,07,24,05,00,14.40
2016,07,24,05,01,14.40
2016,07,24,05,02,14.40
2016,07,24,05,03,14.40
2016,07,24,05,04,14.40
2016,07,24,05,05,14.40
2016,07,24,05,06,14.40
2016,07,24,05,07,14.40
2016,07,24,05,08,14.40
2016,07,24,05,09,14.30
2016,07,24,05,10,14.30
2016,07,24,05,11,14.30
2016,07,24,05,12,14.30
2016,07,24,05,13,14.30
2016,07,24,05,14,14.30
2016,07,24,05,15,14.30
2016,07,24,05,16,14.30
2016,07,24,05,17,14.30
2016,07,24,05,18,14.20
2016,07,24,05,19,14.20
2016,07,24,05,20,14.20
2016,07,24,05,21,14.20
2016,07,24,05,22,14.20
2016,07,24,05,23,14.20
2016,07,24,05,24,14.20
2016,07,24,05,25,14.20
2016,07,24,05,26,14.20
2016,07,24,05,27,14.20
2016,07,24,05,28,14.20
2016,07,24,05,29,14.20
2016,07,24,05,30,14.20
2016,07,24,05,31,14.20
2016,07,24,05,32,14.20
2016,07,24,05,33,14.20
2016,07,24,05,34,14.20
2016,07,24,05,35,14.20
2016,07,24,05,36,14.20
2016,07,24,05,37,14.20
2016,07,24,05,38,14.20
2016,07,24,05,39,14.20
2016,07,24,05,40,14.20
2016,07,24,05,41,14.20
2016,07,24,05,42,14.20
2016,07,24,05,43,14.20
2016,07,24,05,44,14.20
2016,07,24,05,45,14.20
2016,07,24,05,46,14.20
2016,07,24,05,47,14.20
2016,07,24,05,48,14.20
2016,07,24,05,49,14.20
2016,07,24,05,50,14.20
2016,07,24,05,51,14.20
2016,07,24,05,52,14.20
2016,07,24,05,53,14.20
2016,07,24,05,54,14.20
2016,07,24,05,55,14.10
2016,07,24,05,56,14.10
2016,07,24,05,57,14.10
2016,07,24,05,58,14.10
2016,07,24,05,59,14.10
2016,07,24,06,00,14.10
2016,07,24,06,01,14.10
2016,07,24,06,02,14.10
2016,07,24,06,03,14.00
2016,07,24,06,04,14.00
2016,07,24,06,05,14.00
2016,07,24,06,06,13.90
2016,07,24,06,07,13.90
2016,07,24,06,08,13.90
2016,07,24,06,09,13.90
2016,07,24,06,10,13.90
2016,07,24,06,11,14.00
2016,07,24,06,12,14.00
2016,07,24,06,13,14.00
2016,07,24,06,14,14.00
2016,07,24,06,15,14.10
2016,07,24,06,16,14.10
2016,07,24,06,17,14.10
2016,07,24,06,18,14.10
2016,07,24,06,19,14.10
2016,07,24,06,20,14.10
2016,07,24,06,21,14.10
2016,07,24,06,22,14.10
2016,07,24,06,23,14.10
2016,07,24,06,24,14.10
2016,07,24,06,25,14.10
2016,07,24,06,26,14.10
2016,07,24,06,27,14.10
2016,07,24,06,28,14.10
2016,07,24,06,29,14.10
2016,07,24,06,30,14.20
2016,07,24,06,31,14.20
2016,07,24,06,32,14.20
2016,07,24,06,33,14.20
2016,07,24,06,34,14.20
2016,07,24,06,35,14.20
2016,07,24,06,36,14.30
2016,07,24,06,37,14.30
2016,07,24,06,38,14.30
2016,07,24,06,39,14.30
2016,07,24,06,40,14.30
2016,07,24,06,41,14.40
2016,07,24,06,42,14.40
2016,07,24,06,43,14.50
2016,07,24,06,44,14.50
2016,07,24,06,45,14.60
2016,07,24,06,46,14.60
2016,07,24,06,47,14.70
2016,07,24,06,48,14.80
2016,07,24,06,49,14.80
2016,07,24,06,50,15.00
2016,07,24,06,51,15.00
2016,07,24,06,52,15.00
2016,07,24,06,53,15.00
2016,07,24,06,54,15.00
2016,07,24,06,55,15.20
2016,07,24,06,56,15.30
2016,07,24,06,57,15.30
2016,07,24,06,58,15.40
2016,07,24,06,59,15.50
2016,07,24,07,00,15.60
2016,07,24,07,01,15.70
2016,07,24,07,02,15.70
2016,07,24,07,03,15.80
2016,07,24,07,04,15.90
2016,07,24,07,05,16.00
2016,07,24,07,06,16.10
2016,07,24,07,07,16.20
2016,07,24,07,08,16.20
2016,07,24,07,09,16.30
2016,07,24,07,10,16.40
2016,07,24,07,11,16.50
2016,07,24,07,12,16.60
2016,07,24,07,13,16.70
2016,07,24,07,14,16.80
2016,07,24,07,15,16.90
2016,07,24,07,16,17.00
2016,07,24,07,17,17.10
2016,07,24,07,18,17.10
2016,07,24,07,19,17.20
2016,07,24,07,20,17.20
2016,07,24,07,21,17.30
2016,07,24,07,22,17.40
2016,07,24,07,23,17.40
2016,07,24,07,24,17.50
2016,07,24,07,25,17.60
2016,07,24,07,26,17.70
2016,07,24,07,27,17.80
2016,07,24,07,28,17.90
2016,07,24,07,29,17.90
2016,07,24,07,30,18.00
2016,07,24,07,31,18.00
2016,07,24,07,32,18.10
2016,07,24,07,33,18.10
2016,07,24,07,34,18.00
2016,07,24,07,35,18.00
2016,07,24,07,36,17.90
2016,07,24,07,37,17.90
2016,07,24,07,38,17.90
2016,07,24,07,39,17.80
2016,07,24,07,40,17.80
2016,07,24,07,41,17.80
2016,07,24,07,42,17.70
2016,07,24,07,43,17.70
2016,07,24,07,44,17.80
2016,07,24,07,45,17.80
2016,07,24,07,46,17.80
2016,07,24,07,47,17.90
2016,07,24,07,48,18.00
2016,07,24,07,49,18.10
2016,07,24,07,50,18.20
2016,07,24,07,51,18.30
2016,07,24,07,52,18.40
2016,07,24,07,53,18.60
2016,07,24,07,54,18.60
2016,07,24,07,55,18.70
2016,07,24,07,56,18.80
2016,07,24,07,57,18.80
2016,07,24,07,58,18.90
2016,07,24,07,59,19.00
2016,07,24,08,00,19.10
2016,07,24,08,01,19.10
2016,07,24,08,02,19.20
2016,07,24,08,03,19.20
2016,07,24,08,04,19.20
2016,07,24,08,05,19.20
2016,07,24,08,06,19.30
2016,07,24,08,07,19.30
2016,07,24,08,08,19.40
2016,07,24,08,09,19.40
2016,07,24,08,10,19.50
2016,07,24,08,11,19.60
2016,07,24,08,12,19.60
2016,07,24,08,13,19.70
2016,07,24,08,14,19.70
2016,07,24,08,15,19.80
2016,07,24,08,16,19.80
2016,07,24,08,17,19.90
2016,07,24,08,18,20.00
2016,07,24,08,19,20.10
2016,07,24,08,20,20.20
2016,07,24,08,21,20.30
2016,07,24,08,22,20.40
2016,07,24,08,23,20.50
2016,07,24,08,24,20.60
2016,07,24,08,25,20.70
2016,07,24,08,26,20.70
2016,07,24,08,27,20.80
2016,07,24,08,28,20.80
2016,07,24,08,29,20.90
2016,07,24,08,30,20.90
2016,07,24,08,31,20.80
2016,07,24,08,32,20.80
2016,07,24,08,33,20.70
2016,07,24,08,34,20.60
2016,07,24,08,35,20.60
2016,07,24,08,36,20.60
2016,07,24,08,37,20.60
2016,07,24,08,38,20.60
2016,07,24,08,39,20.50
2016,07,24,08,40,20.40
2016,07,24,08,41,20.30
2016,07,24,08,42,20.30
2016,07,24,08,43,20.30
2016,07,24,08,44,20.30
2016,07,24,08,45,20.30
2016,07,24,08,46,20.30
2016,07,24,08,47,20.30
2016,07,24,08,48,20.30
2016,07,24,08,49,20.30
2016,07,24,08,50,20.30
2016,07,24,08,51,20.30
2016,07,24,08,52,20.30
2016,07,24,08,53,20.20
2016,07,24,08,54,20.20
2016,07,24,08,55,20.20
2016,07,24,08,56,20.20
2016,07,24,08,57,20.30
2016,07,24,08,58,20.30
2016,07,24,08,59,20.40
2016,07,24,09,00,20.40
2016,07,24,09,01,20.50
2016,07,24,09,02,20.60
2016,07,24,09,03,20.70
2016,07,24,09,04,20.70
2016,07,24,09,05,20.80
2016,07,24,09,06,20.80
2016,07,24,09,07,20.90
2016,07,24,09,08,21.00
2016,07,24,09,09,21.10
2016,07,24,09,10,21.10
2016,07,24,09,11,21.10
2016,07,24,09,12,21.00
2016,07,24,09,13,21.10
2016,07,24,09,14,21.10
2016,07,24,09,15,21.00
2016,07,24,09,16,21.00
2016,07,24,09,17,21.10
2016,07,24,09,18,21.10
2016,07,24,09,19,21.10
2016,07,24,09,20,21.10
2016,07,24,09,21,21.20
2016,07,24,09,22,21.20
2016,07,24,09,23,21.20
2016,07,24,09,24,21.20
2016,07,24,09,25,21.20
2016,07,24,09,26,21.20
2016,07,24,09,27,21.20
2016,07,24,09,28,21.30
2016,07,24,09,29,21.30
2016,07,24,09,30,21.40
2016,07,24,09,31,21.40
2016,07,24,09,32,21.40
2016,07,24,09,33,21.40
2016,07,24,09,34,21.40
2016,07,24,09,35,21.30
2016,07,24,09,36,21.30
2016,07,24,09,37,21.30
2016,07,24,09,38,21.20
2016,07,24,09,39,21.10
2016,07,24,09,40,21.10
2016,07,24,09,41,21.00
2016,07,24,09,42,21.00
2016,07,24,09,43,21.10
2016,07,24,09,44,21.10
2016,07,24,09,45,21.10
2016,07,24,09,46,21.20
2016,07,24,09,47,21.10
2016,07,24,09,48,21.10
2016,07,24,09,49,21.00
2016,07,24,09,50,20.90
2016,07,24,09,51,20.90
2016,07,24,09,52,20.90
2016,07,24,09,53,20.80
2016,07,24,09,54,20.80
2016,07,24,09,55,20.80
2016,07,24,09,56,20.80
2016,07,24,09,57,20.70
2016,07,24,09,58,20.70
2016,07,24,09,59,20.70
2016,07,24,10,00,20.70
2016,07,24,10,01,20.70
2016,07,24,10,02,20.60
2016,07,24,10,03,20.60
2016,07,24,10,04,20.60
2016,07,24,10,05,20.60
2016,07,24,10,06,20.60
2016,07,24,10,07,20.70
2016,07,24,10,08,20.70
2016,07,24,10,09,20.70
2016,07,24,10,10,20.70
2016,07,24,10,11,20.70
2016,07,24,10,12,20.60
2016,07,24,10,13,20.60
2016,07,24,10,14,20.50
2016,07,24,10,15,20.40
2016,07,24,10,16,20.40
2016,07,24,10,17,20.40
2016,07,24,10,18,20.40
2016,07,24,10,19,20.40
2016,07,24,10,20,20.40
2016,07,24,10,21,20.40
2016,07,24,10,22,20.40
2016,07,24,10,23,20.40
2016,07,24,10,24,20.40
2016,07,24,10,25,20.50
2016,07,24,10,26,20.60
2016,07,24,10,27,20.60
2016,07,24,10,28,20.70
2016,07,24,10,29,20.70
2016,07,24,10,30,20.80
2016,07,24,10,31,20.80
2016,07,24,10,32,20.70
2016,07,24,10,33,20.70
2016,07,24,10,34,20.60
2016,07,24,10,35,20.70
2016,07,24,10,36,20.70
2016,07,24,10,37,20.70
2016,07,24,10,38,20.70
2016,07,24,10,39,20.70
2016,07,24,10,40,20.70
2016,07,24,10,41,20.70
2016,07,24,10,42,20.70
2016,07,24,10,43,20.60
2016,07,24,10,44,20.60
2016,07,24,10,45,20.60
2016,07,24,10,46,20.60
2016,07,24,10,47,20.50
2016,07,24,10,48,20.50
2016,07,24,10,49,20.50
2016,07,24,10,50,20.50
2016,07,24,10,51,20.60
2016,07,24,10,52,20.80
2016,07,24,10,53,20.90
2016,07,24,10,54,20.90
2016,07,24,10,55,21.00
2016,07,24,10,56,21.10
2016,07,24,10,57,21.10
2016,07,24,10,58,21.10
2016,07,24,10,59,21.00
2016,07,24,11,00,21.00
2016,07,24,11,01,20.90
2016,07,24,11,02,20.80
2016,07,24,11,03,20.80
2016,07,24,11,04,20.80
2016,07,24,11,05,20.80
2016,07,24,11,06,20.90
2016,07,24,11,07,21.00
2016,07,24,11,08,21.10
2016,07,24,11,09,21.10
2016,07,24,11,10,21.20
2016,07,24,11,11,21.20
2016,07,24,11,12,21.20
2016,07,24,11,13,21.20
2016,07,24,11,14,21.20
2016,07,24,11,15,21.30
2016,07,24,11,16,21.30
2016,07,24,11,17,21.30
2016,07,24,11,18,21.30
2016,07,24,11,19,21.30
2016,07,24,11,20,21.30
2016,07,24,11,21,21.30
2016,07,24,11,22,21.20
2016,07,24,11,23,21.20
2016,07,24,11,24,21.20
2016,07,24,11,25,21.30
2016,07,24,11,26,21.30
2016,07,24,11,27,21.40
2016,07,24,11,28,21.40
2016,07,24,11,29,21.40
2016,07,24,11,30,21.30
2016,07,24,11,31,21.10
2016,07,24,11,32,21.00
2016,07,24,11,33,20.90
2016,07,24,11,34,20.90
2016,07,24,11,35,20.90
2016,07,24,11,36,21.00
2016,07,24,11,37,21.00
2016,07,24,11,38,21.10
2016,07,24,11,39,21.20
2016,07,24,11,40,21.20
2016,07,24,11,41,21.30
2016,07,24,11,42,21.40
2016,07,24,11,43,21.40
2016,07,24,11,44,21.50
2016,07,24,11,45,21.50
2016,07,24,11,46,21.60
2016,07,24,11,47,21.70
2016,07,24,11,48,21.70
2016,07,24,11,49,21.80
2016,07,24,11,50,21.80
2016,07,24,11,51,21.90
2016,07,24,11,52,22.00
2016,07,24,11,53,22.00
2016,07,24,11,54,22.00
2016,07,24,11,55,22.10
2016,07,24,11,56,22.10
2016,07,24,11,57,22.20
2016,07,24,11,58,22.30
2016,07,24,11,59,22.40
2016,07,24,12,00,22.40
2016,07,24,12,01,22.40
2016,07,24,12,02,22.30
2016,07,24,12,03,22.30
2016,07,24,12,04,22.30
2016,07,24,12,05,22.30
2016,07,24,12,06,22.30
2016,07,24,12,07,22.30
2016,07,24,12,08,22.30
2016,07,24,12,09,22.30
2016,07,24,12,10,22.30
2016,07,24,12,11,22.30
2016,07,24,12,12,22.30
2016,07,24,12,13,22.30
2016,07,24,12,14,22.30
2016,07,24,12,15,22.40
2016,07,24,12,16,22.50
2016,07,24,12,17,22.60
2016,07,24,12,18,22.80
2016,07,24,12,19,22.90
2016,07,24,12,20,23.00
2016,07,24,12,21,23.10
2016,07,24,12,22,23.10
2016,07,24,12,23,23.10
2016,07,24,12,24,23.10
2016,07,24,12,25,23.10
2016,07,24,12,26,23.00
2016,07,24,12,27,23.00
2016,07,24,12,28,22.90
2016,07,24,12,29,22.90
2016,07,24,12,30,23.00
2016,07,24,12,31,23.10
2016,07,24,12,32,23.10
2016,07,24,12,33,23.20
2016,07,24,12,34,23.20
2016,07,24,12,35,23.20
2016,07,24,12,36,23.30
2016,07,24,12,37,23.30
2016,07,24,12,38,23.40
2016,07,24,12,39,23.40
2016,07,24,12,40,23.30
2016,07,24,12,41,23.20
2016,07,24,12,42,23.10
2016,07,24,12,43,23.10
2016,07,24,12,44,23.00
2016,07,24,12,45,23.00
2016,07,24,12,46,23.00
2016,07,24,12,47,23.00
2016,07,24,12,48,23.00
2016,07,24,12,49,23.10
2016,07,24,12,50,23.10
2016,07,24,12,51,23.10
2016,07,24,12,52,23.20
2016,07,24,12,53,23.20
2016,07,24,12,54,23.20
2016,07,24,12,55,23.30
2016,07,24,12,56,23.40
2016,07,24,12,57,23.40
2016,07,24,12,58,23.50
2016,07,24,12,59,23.60
2016,07,24,13,00,23.60
2016,07,24,13,01,23.60
2016,07,24,13,02,23.60
2016,07,24,13,03,23.60
2016,07,24,13,04,23.60
2016,07,24,13,05,23.70
2016,07,24,13,06,23.70
2016,07,24,13,07,23.60
2016,07,24,13,08,23.60
2016,07,24,13,09,23.50
2016,07,24,13,10,23.50
2016,07,24,13,11,23.40
2016,07,24,13,12,23.40
2016,07,24,13,13,23.40
2016,07,24,13,14,23.30
2016,07,24,13,15,23.30
2016,07,24,13,16,23.30
2016,07,24,13,17,23.30
2016,07,24,13,18,23.30
2016,07,24,13,19,23.30
2016,07,24,13,20,23.40
2016,07,24,13,21,23.40
2016,07,24,13,22,23.50
2016,07,24,13,23,23.60
2016,07,24,13,24,23.70
2016,07,24,13,25,23.80
2016,07,24,13,26,23.80
2016,07,24,13,27,23.80
2016,07,24,13,28,23.70
2016,07,24,13,29,23.70
2016,07,24,13,30,23.70
2016,07,24,13,31,23.70
2016,07,24,13,32,23.60
2016,07,24,13,33,23.60
2016,07,24,13,34,23.60
2016,07,24,13,35,23.60
2016,07,24,13,36,23.60
2016,07,24,13,37,23.50
2016,07,24,13,38,23.50
2016,07,24,13,39,23.40
2016,07,24,13,40,23.40
2016,07,24,13,41,23.50
2016,07,24,13,42,23.60
2016,07,24,13,43,23.70
2016,07,24,13,44,23.80
2016,07,24,13,45,23.80
2016,07,24,13,46,23.70
2016,07,24,13,47,23.70
2016,07,24,13,48,23.70
2016,07,24,13,49,23.70
2016,07,24,13,50,23.70
2016,07,24,13,51,23.80
2016,07,24,13,52,23.80
2016,07,24,13,53,23.80
2016,07,24,13,54,23.80
2016,07,24,13,55,23.80
2016,07,24,13,56,23.80
2016,07,24,13,57,23.80
2016,07,24,13,58,23.80
2016,07,24,13,59,23.80
2016,07,24,14,00,23.80
2016,07,24,14,01,23.80
2016,07,24,14,02,23.80
2016,07,24,14,03,23.80
2016,07,24,14,04,23.80
2016,07,24,14,05,23.70
2016,07,24,14,06,23.70
2016,07,24,14,07,23.70
2016,07,24,14,08,23.70
2016,07,24,14,09,23.70
2016,07,24,14,10,23.70
2016,07,24,14,11,23.60
2016,07,24,14,12,23.60
2016,07,24,14,13,23.60
2016,07,24,14,14,23.50
2016,07,24,14,15,23.50
2016,07,24,14,16,23.50
2016,07,24,14,17,23.50
2016,07,24,14,18,23.50
2016,07,24,14,19,23.60
2016,07,24,14,20,23.70
2016,07,24,14,21,23.70
2016,07,24,14,22,23.80
2016,07,24,14,23,23.80
2016,07,24,14,24,23.90
2016,07,24,14,25,23.90
2016,07,24,14,26,23.90
2016,07,24,14,27,24.00
2016,07,24,14,28,24.00
2016,07,24,14,29,24.00
2016,07,24,14,30,23.90
2016,07,24,14,31,23.80
2016,07,24,14,32,23.80
2016,07,24,14,33,23.80
2016,07,24,14,34,23.80
2016,07,24,14,35,23.80
2016,07,24,14,36,23.70
2016,07,24,14,37,23.70
2016,07,24,14,38,23.70
2016,07,24,14,39,23.70
2016,07,24,14,40,23.70
2016,07,24,14,41,23.70
2016,07,24,14,42,23.80
2016,07,24,14,43,23.80
2016,07,24,14,44,23.90
2016,07,24,14,45,23.90
2016,07,24,14,46,24.00
2016,07,24,14,47,24.10
2016,07,24,14,48,24.20
2016,07,24,14,49,24.30
2016,07,24,14,50,24.30
2016,07,24,14,51,24.20
2016,07,24,14,52,24.20
2016,07,24,14,53,24.20
2016,07,24,14,54,24.20
2016,07,24,14,55,24.20
2016,07,24,14,56,24.10
2016,07,24,14,57,24.10
2016,07,24,14,58,24.00
2016,07,24,14,59,23.90
2016,07,24,15,00,23.80
2016,07,24,15,01,23.80
2016,07,24,15,02,23.80
2016,07,24,15,03,23.80
2016,07,24,15,04,23.80
2016,07,24,15,05,23.90
2016,07,24,15,06,24.00
2016,07,24,15,07,24.10
2016,07,24,15,08,24.20
2016,07,24,15,09,24.20
2016,07,24,15,10,24.20
2016,07,24,15,11,24.20
2016,07,24,15,12,24.30
2016,07,24,15,13,24.40
2016,07,24,15,14,24.50
2016,07,24,15,15,24.50
2016,07,24,15,16,24.50
2016,07,24,15,17,24.50
2016,07,24,15,18,24.60
2016,07,24,15,19,24.70
2016,07,24,15,20,24.80
2016,07,24,15,21,24.90
2016,07,24,15,22,25.10
2016,07,24,15,23,25.20
2016,07,24,15,24,25.20
2016,07,24,15,25,25.30
2016,07,24,15,26,25.30
2016,07,24,15,27,25.30
2016,07,24,15,28,25.30
2016,07,24,15,29,25.30
2016,07,24,15,30,25.30
2016,07,24,15,31,25.30
2016,07,24,15,32,25.30
2016,07,24,15,33,25.30
2016,07,24,15,34,25.30
2016,07,24,15,35,25.30
2016,07,24,15,36,25.30
2016,07,24,15,37,25.30
2016,07,24,15,38,25.30
2016,07,24,15,39,25.20
2016,07,24,15,40,25.30
2016,07,24,15,41,25.30
2016,07,24,15,42,25.30
2016,07,24,15,43,25.30
2016,07,24,15,44,25.30
2016,07,24,15,45,25.30
2016,07,24,15,46,25.30
2016,07,24,15,47,25.20
2016,07,24,15,48,25.20
2016,07,24,15,49,25.20
2016,07,24,15,50,25.20
2016,07,24,15,51,25.20
2016,07,24,15,52,25.20
2016,07,24,15,53,25.20
2016,07,24,15,54,25.20
2016,07,24,15,55,25.10
2016,07,24,15,56,25.10
2016,07,24,15,57,25.10
2016,07,24,15,58,25.10
2016,07,24,15,59,25.10
2016,07,24,16,00,25.10
2016,07,24,16,01,25.10
2016,07,24,16,02,25.10
2016,07,24,16,03,25.10
2016,07,24,16,04,25.10
2016,07,24,16,05,25.20
2016,07,24,16,06,25.20
2016,07,24,16,07,25.20
2016,07,24,16,08,25.20
2016,07,24,16,09,25.20
2016,07,24,16,10,25.20
2016,07,24,16,11,25.20
2016,07,24,16,12,25.20
2016,07,24,16,13,25.20
2016,07,24,16,14,25.20
2016,07,24,16,15,25.20
2016,07,24,16,16,25.10
2016,07,24,16,17,25.10
2016,07,24,16,18,25.10
2016,07,24,16,19,25.10
2016,07,24,16,20,25.10
2016,07,24,16,21,25.10
2016,07,24,16,22,25.10
2016,07,24,16,23,25.10
2016,07,24,16,24,25.10
2016,07,24,16,25,25.00
2016,07,24,16,26,25.00
2016,07,24,16,27,24.90
2016,07,24,16,28,24.90
2016,07,24,16,29,24.80
2016,07,24,16,30,24.80
2016,07,24,16,31,24.80
2016,07,24,16,32,24.80
2016,07,24,16,33,24.70
2016,07,24,16,34,24.60
2016,07,24,16,35,24.60
2016,07,24,16,36,24.50
2016,07,24,16,37,24.40
2016,07,24,16,38,24.40
2016,07,24,16,39,24.30
2016,07,24,16,40,24.30
2016,07,24,16,41,24.30
2016,07,24,16,42,24.30
2016,07,24,16,43,24.30
2016,07,24,16,44,24.30
2016,07,24,16,45,24.30
2016,07,24,16,46,24.30
2016,07,24,16,47,24.30
2016,07,24,16,48,24.30
2016,07,24,16,49,24.30
2016,07,24,16,50,24.30
2016,07,24,16,51,24.30
2016,07,24,16,52,24.30
2016,07,24,16,53,24.40
2016,07,24,16,54,24.40
2016,07,24,16,55,24.40
2016,07,24,16,56,24.40
2016,07,24,16,57,24.40
2016,07,24,16,58,24.40
2016,07,24,16,59,24.50
2016,07,24,17,00,24.50
2016,07,24,17,01,24.60
2016,07,24,17,02,24.60
2016,07,24,17,03,24.70
2016,07,24,17,04,24.80
2016,07,24,17,05,24.80
2016,07,24,17,06,24.90
2016,07,24,17,07,24.90
2016,07,24,17,08,24.90
2016,07,24,17,09,24.90
2016,07,24,17,10,24.90
2016,07,24,17,11,24.90
2016,07,24,17,12,24.90
2016,07,24,17,13,24.90
2016,07,24,17,14,24.90
2016,07,24,17,15,24.90
2016,07,24,17,16,25.00
2016,07,24,17,17,25.00
2016,07,24,17,18,25.00
2016,07,24,17,19,25.10